Weather History for KESC - November, 2011

Change the Weather History Date:

Saturday, November 26, 2011

  Actual Average Record
Temperature  
Mean Temperature 45 °F -  
Max Temperature 48 °F 36 °F 49 °F (1952)
Min Temperature 42 °F 23 °F 5 °F (2014)
Degree Days  
Heating Degree Days 20    
Moisture  
Dew Point 41 °F    
Average Humidity 83    
Maximum Humidity 87    
Minimum Humidity 76    
Precipitation  
Precipitation 0.12 in - - ()
Sea Level Pressure  
Sea Level Pressure 29.75 in    
Wind  
Wind Speed 5 mph (South)    
Max Wind Speed 14 mph    
Max Gust Speed 20 mph    
Visibility 4 miles    
Events      
Averages and records for this station are not official NWS values.
T = Trace of Precipitation, MM = Missing Value Source: NWS Daily Summary

Daily Weather History Graph

Daily Weather History Graph

Search for Another Location

Airport or City:

Trip Planner

Search our weather history database for the weather conditions in past years. The results will help you decide how hot, cold, wet, or windy it might be!

Date:

Astronomy

Nov. 26, 2011 Rise Set
Actual Time 8:02 AM EST 5:08 PM EST
Civil Twilight 7:29 AM EST 5:41 PM EST
Nautical Twilight 6:52 AM EST 6:18 PM EST
Astronomical Twilight 6:16 AM EST 6:54 PM EST
Moon 9:36 AM EST (11/26) 6:36 PM EST (11/26)
Length of Visible Light 10h 12m
Length of Day
9h 06m
Waxing Crescent, 3% of the Moon is Illuminated
Nov 26
Waxing Crescent
Dec 2
First Quarter
Dec 10
Full
Dec 17
Last Quarter
Dec 24
New

Hourly Weather History & Observations

Time (EST) Temp. Windchill Dew Point Humidity Pressure Visibility Wind Dir Wind Speed Gust Speed Precip Events Conditions
1:35 AM 44.6 °F - 39.2 °F 81% 29.84 in 5.0 mi Calm Calm - N/A   Overcast
2:55 AM 44.6 °F 41.4 °F 39.2 °F 81% 29.83 in 4.0 mi ENE 5.8 mph - N/A   Overcast
3:15 AM 44.6 °F 42.2 °F 39.2 °F 81% 29.83 in 5.0 mi ENE 4.6 mph - N/A   Overcast
3:35 AM 44.6 °F 43.1 °F 39.2 °F 81% 29.83 in 4.0 mi ENE 3.5 mph - N/A   Overcast
3:55 AM 44.6 °F 42.2 °F 39.2 °F 81% 29.82 in 3.0 mi East 4.6 mph - N/A   Overcast
4:15 AM 44.6 °F 42.2 °F 39.2 °F 81% 29.82 in 2.5 mi East 4.6 mph - N/A   Overcast
4:35 AM 44.6 °F 43.1 °F 39.2 °F 81% 29.82 in 2.5 mi East 3.5 mph - N/A   Overcast
4:55 AM 44.6 °F - 39.2 °F 81% 29.83 in 2.0 mi Calm Calm - N/A   Overcast
5:15 AM 44.6 °F 43.1 °F 39.2 °F 81% 29.82 in 2.0 mi ESE 3.5 mph - N/A   Overcast
5:35 AM 44.6 °F 43.1 °F 39.2 °F 81% 29.81 in 2.0 mi ENE 3.5 mph - N/A   Overcast
6:15 AM 44.6 °F 43.1 °F 39.2 °F 81% 29.81 in 2.0 mi ESE 3.5 mph - N/A   Overcast
6:35 AM 44.6 °F 42.2 °F 39.2 °F 81% 29.81 in 1.8 mi East 4.6 mph - N/A   Overcast
6:55 AM 44.6 °F - 39.2 °F 81% 29.79 in 3.0 mi Calm Calm - N/A   Overcast
7:15 AM 44.6 °F 41.4 °F 39.2 °F 81% 29.77 in 3.0 mi East 5.8 mph - N/A   Overcast
7:35 AM 44.6 °F 41.4 °F 39.2 °F 81% 29.77 in 3.0 mi East 5.8 mph - N/A   Overcast
7:55 AM 44.6 °F 40.2 °F 39.2 °F 81% 29.79 in 3.0 mi ESE 8.1 mph - N/A   Overcast
8:15 AM 44.6 °F 40.2 °F 39.2 °F 81% 29.80 in 3.0 mi SE 8.1 mph - N/A   Overcast
8:35 AM 44.6 °F 40.7 °F 41.0 °F 87% 29.79 in 1.5 mi ESE 6.9 mph - N/A   Overcast
10:15 AM 44.6 °F 39.2 °F 41.0 °F 87% 29.76 in 4.0 mi SSE 10.4 mph - N/A   Overcast
10:35 AM 46.4 °F 41.9 °F 41.0 °F 81% 29.76 in 3.0 mi South 9.2 mph - N/A   Overcast
10:55 AM 46.4 °F 41.9 °F 41.0 °F 81% 29.77 in 3.0 mi South 9.2 mph - 0.01 in   Overcast
11:15 AM 46.4 °F 42.4 °F 41.0 °F 81% 29.77 in 2.5 mi South 8.1 mph - N/A   Overcast
11:35 AM 46.4 °F 41.9 °F 41.0 °F 81% 29.75 in 3.0 mi South 9.2 mph - 0.01 in   Overcast
11:55 AM 46.4 °F 42.9 °F 42.8 °F 87% 29.74 in 3.0 mi South 6.9 mph - 0.01 in   Overcast
12:15 PM 46.4 °F 41.5 °F 42.8 °F 87% 29.73 in 3.0 mi SSE 10.4 mph - N/A   Overcast
12:35 PM 46.4 °F 41.5 °F 41.0 °F 81% 29.73 in 3.0 mi SSE 10.4 mph - N/A   Overcast
1:15 PM 46.4 °F 42.9 °F 42.8 °F 87% 29.69 in 5.0 mi South 6.9 mph - N/A   Overcast
1:35 PM 46.4 °F 42.4 °F 42.8 °F 87% 29.70 in 5.0 mi South 8.1 mph - N/A   Overcast
1:55 PM 46.4 °F 42.4 °F 42.8 °F 87% 29.71 in 5.0 mi South 8.1 mph - N/A   Overcast
2:15 PM 46.4 °F 43.5 °F 42.8 °F 87% 29.71 in 5.0 mi South 5.8 mph - N/A   Overcast
3:15 PM 46.4 °F 43.5 °F 42.8 °F 87% 29.69 in 3.0 mi South 5.8 mph - N/A   Overcast
3:35 PM 46.4 °F 43.5 °F 42.8 °F 87% 29.69 in 3.0 mi SSW 5.8 mph - N/A   Overcast
3:55 PM 46.4 °F 43.5 °F 42.8 °F 87% 29.69 in 3.0 mi South 5.8 mph - N/A   Overcast
4:15 PM 46.4 °F 42.9 °F 42.8 °F 87% 29.70 in 2.5 mi South 6.9 mph - N/A   Overcast
4:35 PM 46.4 °F 42.4 °F 42.8 °F 87% 29.70 in 2.0 mi SSW 8.1 mph - N/A   Overcast
4:55 PM 46.4 °F 42.4 °F 42.8 °F 87% 29.70 in 2.0 mi SSW 8.1 mph - 0.04 in   Overcast
5:15 PM 46.4 °F 42.4 °F 42.8 °F 87% 29.70 in 1.8 mi SSW 8.1 mph - 0.01 in   Overcast
5:35 PM 46.4 °F 42.9 °F 42.8 °F 87% 29.71 in 2.5 mi SSW 6.9 mph - 0.03 in   Overcast
5:55 PM 46.4 °F 44.3 °F 42.8 °F 87% 29.71 in 2.5 mi SSW 4.6 mph - 0.04 in   Overcast
6:15 PM 46.4 °F 45.2 °F 42.8 °F 87% 29.72 in 2.0 mi SSW 3.5 mph - N/A   Overcast
6:35 PM 46.4 °F 45.2 °F 42.8 °F 87% 29.72 in 1.8 mi SSW 3.5 mph - 0.01 in   Overcast
6:55 PM 46.4 °F - 42.8 °F 87% 29.72 in 1.2 mi Calm Calm - 0.02 in   Overcast
7:15 PM 46.4 °F 45.2 °F 42.8 °F 87% 29.72 in 1.2 mi WSW 3.5 mph - N/A   Overcast
7:35 PM 46.4 °F 44.3 °F 42.8 °F 87% 29.71 in 1.0 mi West 4.6 mph - N/A   Overcast
7:55 PM 48.2 °F - 42.8 °F 82% 29.71 in 10.0 mi West 6.9 mph - N/A   Overcast
8:35 PM 46.4 °F 42.9 °F 42.8 °F 87% 29.73 in 10.0 mi WNW 6.9 mph - N/A   Mostly Cloudy
9:15 PM 46.4 °F 43.5 °F 42.8 °F 87% 29.73 in 10.0 mi WNW 5.8 mph - N/A   Overcast
9:35 PM 46.4 °F 41.9 °F 41.0 °F 81% 29.74 in 10.0 mi WNW 9.2 mph - N/A   Overcast
9:55 PM 46.4 °F 40.4 °F 39.2 °F 76% 29.74 in 10.0 mi NW 13.8 mph 19.6 mph N/A   Overcast
10:15 PM 44.6 °F 40.2 °F 37.4 °F 76% 29.75 in 10.0 mi WNW 8.1 mph - N/A   Overcast
10:35 PM 44.6 °F 39.7 °F 37.4 °F 76% 29.75 in 10.0 mi WNW 9.2 mph - N/A   Overcast
11:15 PM 42.8 °F 37.0 °F 35.6 °F 76% 29.76 in 10.0 mi NW 10.4 mph - N/A   Overcast
11:35 PM 42.8 °F 38.0 °F 35.6 °F 76% 29.77 in 10.0 mi NW 8.1 mph - N/A   Overcast
11:55 PM 42.8 °F 38.0 °F 35.6 °F 76% 29.76 in 10.0 mi NW 8.1 mph - N/A   Overcast